Location: Julian California
(33.0790°N, 116.6010°W)
Time: 09:56:59
(UTC-07:00)

Cosmos 1553 Rocket - Pass Details

Date: 14 June 2018
Orbit: 941 x 1009 km, 82.9° (Epoch: 16 October)

Event Time Altitude Azimuth Distance (km) Brightness Sun altitude
Exits shadow 22:56:36 78° 163° (SSE) 966 3.7 -27.8°
Maximum altitude 22:57:01 86° 95° (E) 951 3.8 -27.8°
Drops below altitude 10° 23:03:06 10° 7° (N) 2,658 6.9 -28.4°
Sets 23:05:34 0° 7° (N) 3,605 7.8 -28.7°
